Peru, IN

7:36 PM EDT on August 23, 2017 (GMT -0400)
Grissom Air Reserve Base

Weather History for KGUS - August, 2014

Change the Weather History Date:

Friday, August 15, 2014

  Actual Average Record
Temperature  
Mean Temperature 59 °F -  
Max Temperature 76 °F 78 °F 90 °F (2010)
Min Temperature 43 °F 61 °F 43 °F (2014)
Degree Days  
Heating Degree Days 6    
Growing Degree Days 9 (Base 50)    
Moisture  
Dew Point 46 °F    
Average Humidity 65    
Maximum Humidity 100    
Minimum Humidity 26    
Precipitation  
Precipitation 0.00 in - - ()
Sea Level Pressure  
Sea Level Pressure 30.07 in    
Wind  
Wind Speed 3 mph (West)    
Max Wind Speed 7 mph    
Max Gust Speed -    
Visibility 10 miles    
Events      
Averages and records for this station are not official NWS values.
T = Trace of Precipitation, MM = Missing Value Source: NWS Daily Summary

Daily Weather History Graph

Daily Weather History Graph

Search for Another Location

Airport or City:

Trip Planner

Search our weather history database for the weather conditions in past years. The results will help you decide how hot, cold, wet, or windy it might be!

Date:

Astronomy

Aug. 15, 2014 Rise Set
Actual Time 6:55 AM EDT 8:42 PM EDT
Civil Twilight 6:25 AM EDT 9:11 PM EDT
Nautical Twilight 5:49 AM EDT 9:47 PM EDT
Astronomical Twilight 5:11 AM EDT 10:25 PM EDT
Moon 11:42 PM EDT (8/15) 12:39 PM EDT (8/15)
Length of Visible Light 14h 45m
Length of Day
13h 47m
Waning Gibbous, 69% of the Moon is Illuminated
Aug 15
Waning Gibbous
Aug 17
Last Quarter
Aug 25
New
Sep 2
First Quarter
Sep 8
Full

Hourly Weather History & Observations

Time (EDT) Temp. Windchill Dew Point Humidity Pressure Visibility Wind Dir Wind Speed Gust Speed Precip Events Conditions
12:58 AM 52.5 °F - 48.2 °F 85% 30.07 in 10.0 mi NW 4.6 mph - N/A   Clear
1:58 AM 51.6 °F - 49.1 °F 91% 30.07 in 10.0 mi North 4.6 mph - N/A   Clear
2:58 AM 49.3 °F - 49.3 °F 100% 30.06 in 10.0 mi SW 4.6 mph - N/A   Clear
3:58 AM 44.4 °F 42.0 °F 44.4 °F 100% 30.08 in 10.0 mi SW 4.6 mph - N/A   Clear
4:58 AM 44.2 °F - 44.2 °F 100% 30.08 in 10.0 mi West 2.3 mph - N/A   Clear
5:58 AM 45.9 °F - 45.9 °F 100% 30.08 in 10.0 mi Calm Calm - N/A   Clear
6:58 AM 43.9 °F - 43.9 °F 100% 30.09 in 10.0 mi SSW 2.3 mph - N/A   Clear
7:58 AM 46.2 °F - 46.2 °F 100% 30.10 in 10.0 mi Calm Calm - N/A   Clear
8:58 AM 53.1 °F - 50.9 °F 92% 30.12 in 10.0 mi Calm Calm - N/A   Clear
9:58 AM 60.3 °F - 49.1 °F 67% 30.11 in 10.0 mi Variable 2.3 mph - N/A   Clear
10:30 AM 62.6 °F - 48.2 °F 59% 30.11 in 10.0 mi Calm Calm - N/A   Clear
10:58 AM 64.6 °F - 45.5 °F 50% 30.12 in 10.0 mi Variable 3.5 mph - N/A   Clear
11:58 AM 68.2 °F - 40.3 °F 36% 30.12 in 10.0 mi ENE 4.6 mph - N/A   Clear
12:58 PM 70.7 °F - 41.2 °F 34% 30.11 in 10.0 mi SE 2.3 mph - N/A   Clear
1:58 PM 72.9 °F - 39.9 °F 30% 30.09 in 10.0 mi Variable 6.9 mph - N/A   Clear
2:58 PM 74.7 °F - 41.0 °F 30% 30.08 in 10.0 mi Variable 2.3 mph - N/A   Clear
3:58 PM 75.0 °F - 37.6 °F 26% 30.06 in 10.0 mi West 5.8 mph - N/A   Clear
4:58 PM 75.6 °F - 39.4 °F 27% 30.05 in 10.0 mi Variable 4.6 mph - N/A   Clear
5:58 PM 75.7 °F - 42.1 °F 30% 30.04 in 10.0 mi Variable 3.5 mph - 0.00 in   Clear
6:58 PM 73.9 °F - 45.5 °F 36% 30.03 in 10.0 mi NW 6.9 mph - N/A   Clear
7:58 PM 71.4 °F - 45.7 °F 40% 30.02 in 10.0 mi NW 4.6 mph - N/A   Clear
8:58 PM 65.7 °F - 50.5 °F 58% 30.01 in 10.0 mi West 3.5 mph - N/A   Clear
9:58 PM 63.1 °F - 51.1 °F 65% 30.02 in 10.0 mi Calm Calm - N/A   Clear
10:58 PM 58.8 °F - 53.1 °F 81% 30.03 in 10.0 mi Calm Calm - N/A   Clear
11:58 PM 56.1 °F - 52.5 °F 88% 30.02 in 10.0 mi Calm Calm - N/A   Clear